Date String (YYYY-MM-DD hh:mm:ss) UTC,Instrument flags,Ambient pressure (hPa),Sample flow (lpm),Bypass flow (lpm),Sample temperature (°C),Ambient temperature (°C),ASC tube jacket temperature (°C),LED temperature (°C),Box temperature (°C),Sample RH (%),Span deviation,Mass concentration (μg/m³),Mass concentration (μg/m³),Mass concentration (μg/m³)
DateTimeUTC,F1_M11,P_M11,Q1_M11,Q2_M11,T1_M11,T2_M11,T3_M11,T4_M11,T5_M11,U1_M11,ZSPAN_M11,X0_M11,X2_M11,X1_M11
2021-09-26 22:00:00,,0824.7,4.99,0.00,29.0,26.0,00.0,38.1,30.5,12.4,0002.8,0018.91,0006.76,0005.53
2021-09-26 22:01:00,,0824.7,4.99,0.00,29.0,26.4,00.0,38.1,30.6,12.6,0003.2,0018.90,0006.76,0005.52
2021-09-26 22:02:00,,0824.7,5.01,0.00,29.0,26.9,00.0,38.1,30.7,12.4,0003.1,0019.01,0006.72,0005.52
2021-09-26 22:03:00,,0824.7,5.01,0.00,29.0,27.3,00.0,38.1,30.8,12.4,0003.3,0018.23,0006.70,0005.53
2021-09-26 22:04:00,,0824.7,4.99,0.00,29.1,27.7,00.0,38.1,31.0,12.2,0003.2,0017.71,0006.63,0005.55
2021-09-26 22:05:00,,0824.8,5.00,0.00,29.1,28.0,00.0,38.1,31.1,12.1,0003.2,0016.98,0006.59,0005.57
2021-09-26 22:06:00,,0824.7,5.01,0.00,29.2,28.2,00.0,38.1,31.2,12.4,0003.3,0016.20,0006.58,0005.59
2021-09-26 22:07:00,,0824.7,5.01,0.00,29.3,28.5,00.0,38.1,31.2,12.1,0003.0,0015.95,0006.60,0005.60
2021-09-26 22:08:00,,0824.9,5.00,0.00,29.3,27.9,00.0,38.2,31.1,12.1,0003.0,0016.39,0006.59,0005.59
2021-09-26 22:09:00,,0824.6,4.99,0.00,29.2,26.1,00.0,38.2,30.7,12.0,0003.0,0016.70,0006.61,0005.60
2021-09-26 22:10:00,,0824.7,5.00,0.00,29.1,25.8,00.0,38.1,30.5,12.4,0002.6,0016.85,0006.60,0005.60
2021-09-26 22:11:00,,0824.7,5.00,0.00,29.0,26.2,00.0,38.1,30.6,12.6,0002.3,0017.96,0006.67,0005.60
2021-09-26 22:12:00,,0824.6,5.00,0.00,29.0,26.6,00.0,38.1,30.7,12.3,0002.2,0018.35,0006.69,0005.60
2021-09-26 22:13:00,,0824.6,4.99,0.00,29.0,27.1,00.0,38.1,30.8,12.4,0002.2,0018.55,0006.73,0005.62
2021-09-26 22:14:00,,0824.9,5.01,0.00,29.1,27.5,00.0,38.1,30.9,12.2,0002.4,0019.10,0006.67,0005.62
2021-09-26 22:15:00,,0824.7,4.98,0.00,29.1,27.8,00.0,38.1,31.0,12.2,0002.5,0019.27,0006.69,0005.61
2021-09-26 22:16:00,,0824.7,5.01,0.00,29.2,28.1,00.0,38.1,31.1,12.4,0002.5,0018.76,0006.73,0005.61
2021-09-26 22:17:00,,0824.8,5.00,0.00,29.3,28.4,00.0,38.2,31.2,12.0,0002.6,0020.00,0006.72,0005.60
2021-09-26 22:18:00,,0824.8,4.99,0.00,29.3,28.1,00.0,38.2,31.1,12.2,0002.6,0021.37,0006.76,0005.59
2021-09-26 22:19:00,,0824.7,5.01,0.00,29.2,26.4,00.0,38.2,30.6,12.3,0002.7,0021.47,0006.82,0005.60
2021-09-26 22:20:00,,0824.7,4.99,0.00,29.1,25.8,00.0,38.1,30.4,12.3,0002.7,0020.70,0006.79,0005.61
2021-09-26 22:21:00,,0824.7,4.99,0.00,29.0,26.2,00.0,38.1,30.5,12.2,0002.8,0019.73,0006.77,0005.62
2021-09-26 22:22:00,,0824.6,5.01,0.00,29.0,26.6,00.0,38.1,30.6,11.8,0003.1,0019.44,0006.70,0005.62
2021-09-26 22:23:00,,0824.6,5.01,0.00,29.0,27.0,00.0,38.1,30.7,11.7,0003.3,0018.95,0006.64,0005.61
2021-09-26 22:24:00,,0824.7,4.99,0.00,29.1,27.4,00.0,38.1,30.9,12.0,0003.3,0018.52,0006.62,0005.60
2021-09-26 22:25:00,,0824.7,5.00,0.00,29.1,27.8,00.0,38.1,31.0,11.9,0003.0,0017.50,0006.64,0005.59
2021-09-26 22:26:00,,0824.7,4.99,0.00,29.2,28.1,00.0,38.1,31.1,12.1,0003.0,0016.96,0006.67,0005.59
2021-09-26 22:27:00,,0824.7,5.02,0.00,29.3,28.4,00.0,38.1,31.2,12.2,0002.8,0017.47,0006.67,0005.56
2021-09-26 22:28:00,,0824.7,4.99,0.00,29.3,28.2,00.0,38.2,31.2,11.8,0002.6,0016.53,0006.65,0005.55
2021-09-26 22:29:00,,0824.7,5.02,0.00,29.2,26.5,00.0,38.2,30.6,11.9,0002.7,0015.90,0006.64,0005.54
2021-09-26 22:30:00,,0824.6,4.99,0.00,29.1,25.7,00.0,38.1,30.4,12.1,0002.3,0015.63,0006.58,0005.51
2021-09-26 22:31:00,,0824.6,5.01,0.00,29.0,26.1,00.0,38.1,30.5,12.1,0002.4,0015.68,0006.53,0005.49
2021-09-26 22:32:00,,0824.6,4.99,0.00,29.0,26.5,00.0,38.1,30.6,12.2,0002.6,0016.83,0006.50,0005.47
2021-09-26 22:33:00,,0824.7,5.00,0.00,29.0,27.0,00.0,38.1,30.7,12.2,0002.4,0017.87,0006.49,0005.44
2021-09-26 22:34:00,,0824.7,5.01,0.00,29.0,27.4,00.0,38.1,30.9,11.6,0002.4,0017.94,0006.58,0005.43
2021-09-26 22:35:00,,0824.7,5.00,0.00,29.1,27.8,00.0,38.1,31.0,11.5,0002.1,0017.96,0006.60,0005.42
2021-09-26 22:36:00,,0824.7,5.00,0.00,29.2,28.1,00.0,38.1,31.1,11.4,0002.1,0018.84,0006.57,0005.41
2021-09-26 22:37:00,,0824.7,5.01,0.00,29.2,28.3,00.0,38.1,31.2,11.4,0001.8,0020.56,0006.58,0005.39
2021-09-26 22:38:00,,0824.7,4.99,0.00,29.3,28.3,00.0,38.2,31.2,11.5,0001.8,0020.41,0006.57,0005.39
2021-09-26 22:39:00,,0824.6,4.99,0.00,29.3,26.8,00.0,38.2,30.8,11.4,0002.2,0020.15,0006.61,0005.41
2021-09-26 22:40:00,,0824.7,5.01,0.00,29.1,25.7,00.0,38.2,30.5,11.5,0002.3,0019.25,0006.54,0005.40
2021-09-26 22:41:00,,0824.7,5.00,0.00,29.0,26.0,00.0,38.2,30.5,11.8,0002.2,0019.56,0006.48,0005.40
2021-09-26 22:42:00,,0824.7,5.00,0.00,29.0,26.4,00.0,38.1,30.6,12.1,0002.0,0019.25,0006.49,0005.40
2021-09-26 22:43:00,,0824.6,5.01,0.00,29.0,26.9,00.0,38.1,30.7,12.2,0001.7,0018.69,0006.49,0005.39
2021-09-26 22:44:00,,0824.6,5.00,0.00,29.0,27.3,00.0,38.1,30.8,12.1,0001.4,0016.81,0006.52,0005.39
2021-09-26 22:45:00,,0824.7,5.01,0.00,29.1,27.7,00.0,38.1,31.0,12.2,0001.6,0015.90,0006.48,0005.39
2021-09-26 22:46:00,,0824.7,4.99,0.00,29.1,28.0,00.0,38.1,31.1,12.1,0001.4,0015.91,0006.44,0005.40
2021-09-26 22:47:00,,0824.7,4.99,0.00,29.2,28.2,00.0,38.1,31.2,11.9,0001.7,0015.73,0006.48,0005.40
2021-09-26 22:48:00,,0824.8,5.00,0.00,29.3,28.5,00.0,38.2,31.3,11.8,0002.1,0013.90,0006.49,0005.41
2021-09-26 22:49:00,,0824.7,5.02,0.00,29.3,28.0,00.0,38.2,31.1,11.9,0002.1,0013.61,0006.52,0005.41
2021-09-26 22:50:00,,0824.7,5.00,0.00,29.2,26.2,00.0,38.2,30.6,11.9,0001.6,0014.04,0006.58,0005.40
2021-09-26 22:51:00,,0824.7,4.99,0.00,29.1,25.7,00.0,38.2,30.5,12.1,0001.2,0014.94,0006.62,0005.40
2021-09-26 22:52:00,,0824.7,5.02,0.00,29.0,26.1,00.0,38.1,30.6,12.2,0001.2,0016.22,0006.72,0005.41
2021-09-26 22:53:00,,0824.7,5.00,0.00,29.0,26.6,00.0,38.1,30.6,12.4,0001.8,0016.63,0006.74,0005.41
2021-09-26 22:54:00,,0824.7,4.99,0.00,29.0,27.0,00.0,38.1,30.8,12.6,0001.4,0017.59,0006.77,0005.41
2021-09-26 22:55:00,,0824.8,5.00,0.00,29.1,27.4,00.0,38.1,30.9,12.7,0001.3,0017.59,0006.81,0005.40
2021-09-26 22:56:00,,0824.7,5.00,0.00,29.1,27.8,00.0,38.1,31.0,12.7,0000.9,0017.72,0006.75,0005.38
2021-09-26 22:57:00,,0824.8,5.01,0.00,29.2,28.1,00.0,38.1,31.1,12.7,0001.0,0018.39,0006.77,0005.37
2021-09-26 22:58:00,,0824.7,4.99,0.00,29.2,28.3,00.0,38.1,31.2,12.6,0000.4,0018.16,0006.79,0005.38
2021-09-26 22:59:00,,0824.7,5.01,0.00,29.3,28.5,00.0,38.2,31.3,12.3,-000.0,0018.23,0006.74,0005.38
